1500213601.2,18098,17.56,74350.8,9.35,-4.85,-4.49,0,*7A
1500213602.44,18099,17.56,74352.0,9.35,-4.89,-4.41,0,*7F
1500213603.68,18100,17.56,74350.0,9.35,-5.23,-4.61,0,*7D
1500213604.92,18101,17.56,74348.5,9.35,-5.27,-4.61,0,*78
1500213606.14,18102,17.63,74354.8,9.33,-5.31,-4.61,0,*7A
1500213607.36,18103,17.56,74348.5,9.33,-5.23,-4.37,0,*7B
1500213608.57,18104,17.56,74350.8,9.35,-5.39,-4.53,0,*73
1500213609.76,18105,17.56,74350.0,9.33,-5.39,-4.53,0,*74
1500213610.96,18106,17.56,74352.5,9.33,-5.55,-4.53,0,*7D
1500213612.2,18107,17.56,74354.5,9.31,-5.31,-4.29,0,*71
1500213613.43,18108,17.56,74354.0,9.31,-5.19,-4.05,0,*7A
1500213614.64,18109,17.56,74352.0,9.31,-5.35,-4.25,0,*77
1500213615.89,18110,17.56,74352.3,9.27,-5.65,-4.57,0,*78
1500213617.13,18111,17.56,74352.5,9.31,-5.61,-4.29,0,*73
1500213618.37,18112,17.56,74348.8,9.27,-5.89,-4.57,0,*78
1500213619.61,18113,17.56,74350.8,9.27,-6.13,-4.85,0,*76
1500213620.83,18114,17.56,74352.3,9.27,-6.09,-4.49,0,*7A
1500213622.04,18115,17.56,74352.5,9.25,-5.65,-4.09,0,*74
1500213623.28,18116,17.56,74352.0,9.27,-5.77,-4.17,0,*79
1500213624.49,18117,17.56,74352.8,9.23,-5.51,-3.83,0,*72
1500213625.69,18118,17.56,74352.5,9.25,-6.13,-4.21,0,*71
1500213626.93,18119,17.56,74352.3,9.23,-6.23,-4.25,0,*71
1500213628.17,18120,17.56,74352.5,9.23,-5.89,-3.83,0,*73
1500213629.41,18121,17.56,74354.5,9.23,-5.93,-3.95,0,*7E
1500213630.62,18122,17.56,74352.5,9.23,-6.69,-4.53,0,*76
1500213631.87,18123,17.56,74350.3,9.23,-6.19,-4.13,0,*74
1500213633.08,18124,17.63,74358.0,9.23,-6.47,-4.33,0,*7A
1500213634.27,18125,17.56,74352.8,9.21,-6.31,-4.13,0,*7A
1500213635.51,18126,17.56,74354.0,9.21,-5.89,-3.71,0,*7A
1500213636.77,18127,17.56,74350.3,9.19,-5.85,-3.71,0,*7C
1500213637.96,18128,17.56,74352.3,9.21,-6.05,-3.75,0,*77
1500213639.22,18129,17.56,74352.0,9.19,-5.81,-3.71,0,*76
1500213640.43,18130,17.56,74354.5,9.19,-6.35,-4.17,0,*75
1500213641.7,18131,17.56,74350.3,9.19,-7.05,-5.03,0,*72
1500213642.95,18132,17.56,74352.3,9.17,-7.73,-5.61,0,*7A
1500213644.15,18133,17.56,74354.8,9.17,-6.51,-4.33,0,*7C
1500213645.36,18134,17.56,74354.0,9.15,-5.97,-3.75,0,*75
1500213646.56,18135,17.56,74352.5,9.17,-6.43,-4.29,0,*72
1500213647.8,18136,17.56,74354.0,9.15,-7.23,-5.07,0,*79
1500213649.0,18137,17.56,74352.5,9.17,-6.77,-4.41,0,*79
1500213650.21,18138,17.56,74354.8,9.17,-6.27,-3.95,0,*7D
1500213651.42,18139,17.56,74354.3,9.17,-6.23,-3.83,0,*7F
1500213652.65,18140,17.56,74348.8,9.19,-6.23,-3.87,0,*7B
1500213653.87,18141,17.56,74354.5,9.19,-6.51,-4.17,0,*71
1500213655.09,18142,17.63,74354.8,9.19,-6.89,-4.53,0,*77
1500213656.33,18143,17.56,74354.8,9.19,-7.01,-4.49,0,*7C
1500213657.56,18144,17.56,74352.8,9.17,-6.23,-3.63,0,*7B
1500213658.78,18145,17.56,74354.0,9.17,-6.23,-3.75,0,*7D
1500213659.96,18146,17.56,74352.0,9.21,-6.47,-3.95,0,*77
1500213661.2,18147,17.63,74352.3,9.21,-6.23,-3.59,0,*74
1500213662.39,18148,17.63,74354.8,9.21,-6.55,-3.87,0,*79
1500213663.61,18149,17.56,74352.8,9.23,-6.85,-4.21,0,*7C
1500213664.8,18150,17.56,74348.5,9.25,-6.81,-4.17,0,*73
1500213666.04,18151,17.56,74350.3,9.25,-7.57,-4.81,0,*77
1500213667.32,18152,17.56,74352.5,9.23,-8.07,-5.27,0,*75
1500213668.56,18153,17.56,74352.5,9.25,-7.57,-4.69,0,*73
1500213669.78,18154,17.56,74348.3,9.23,-7.23,-4.33,0,*7E
1500213671.02,18155,17.56,74348.0,9.23,-7.61,-4.61,0,*7E
1500213672.27,18156,17.56,74352.3,9.23,-8.21,-5.23,0,*71
1500213673.5,18157,17.63,74354.8,9.23,-7.91,-4.99,0,*74
1500213674.72,18158,17.56,74350.8,9.23,-8.45,-5.39,0,*76
1500213675.96,18159,17.56,74354.5,9.23,-8.75,-5.69,0,*71
1500213677.21,18160,17.56,74354.0,9.23,-8.45,-5.23,0,*76
1500213678.45,18161,17.56,74354.3,9.23,-8.85,-5.65,0,*79
1500213679.65,18162,17.56,74350.5,9.21,-8.71,-5.39,0,*7A
1500213680.86,18163,17.63,74354.8,9.21,-8.85,-5.55,0,*7A
1500213682.08,18164,17.56,74350.5,9.21,-9.01,-5.77,0,*70
1500213683.27,18165,17.56,74352.3,9.21,-8.75,-5.39,0,*79
1500213684.51,18166,17.56,74352.8,9.19,-8.33,-4.69,0,*77
1500213685.73,18167,17.56,74350.5,9.21,-8.59,-5.03,0,*7C
1500213686.92,18168,17.63,74352.0,9.21,-8.97,-5.43,0,*75
1500213688.14,18169,17.56,74350.0,9.19,-8.93,-5.39,0,*76
1500213689.36,18170,17.56,74350.0,9.19,-9.19,-5.55,0,*77
1500213690.62,18171,17.56,74350.0,9.19,-8.71,-5.03,0,*7A
1500213691.86,18172,17.56,74348.5,9.19,-8.63,-4.93,0,*72
1500213693.11,18173,17.56,74352.5,9.19,-8.71,-4.89,0,*7B
1500213694.36,18174,17.63,74352.0,9.19,-9.05,-5.19,0,*76
1500213695.61,18175,17.56,74354.8,9.19,-9.05,-5.27,0,*7A
1500213696.85,18176,17.56,74350.5,9.19,-9.45,-5.39,0,*72
1500213698.12,18177,17.56,74350.8,9.19,-9.15,-5.15,0,*78
1500213699.36,18178,17.56,74352.3,9.15,-8.67,-4.69,0,*75
1500213700.56,18179,17.56,74350.3,9.17,-8.63,-4.53,0,*7B
1500213701.78,18180,17.56,74350.0,9.17,-8.97,-4.93,0,*7A
1500213703.0,18181,17.56,74350.0,9.17,-9.05,-4.93,0,*71
1500213704.22,18182,17.56,74348.0,9.17,-9.05,-4.85,0,*75
1500213705.44,18183,17.56,74346.5,9.17,-8.81,-4.57,0,*76
1500213706.65,18184,17.56,74350.5,9.19,-8.63,-4.49,0,*7C
1500213707.86,18185,17.63,74352.0,9.17,-8.85,-4.61,0,*71
1500213709.13,18186,17.56,74350.5,9.19,-9.15,-4.89,0,*72
1500213710.36,18187,17.56,74348.3,9.19,-8.89,-4.53,0,*70
1500213711.6,18188,17.56,74352.8,9.19,-9.19,-4.81,0,*78
1500213712.8,18189,17.56,74348.8,9.17,-9.05,-4.61,0,*74
1500213714.02,18190,17.63,74354.5,9.17,-9.31,-4.85,0,*71
1500213715.26,18191,17.56,74354.0,9.15,-10.05,-5.65,0,*42
1500213716.47,18192,17.56,74350.5,9.15,-9.79,-5.35,0,*77
1500213717.72,18193,17.56,74352.3,9.15,-10.15,-5.65,0,*41
1500213718.99,18194,17.56,74350.8,9.11,-9.41,-4.77,0,*79
1500213720.21,18195,17.56,74350.5,9.11,-9.01,-4.49,0,*71
1500213721.44,18196,17.56,74348.0,9.11,-9.01,-4.37,0,*7B
1500213722.66,18197,17.56,74354.3,9.13,-8.81,-4.25,0,*72
1500213723.9,18198,17.56,74352.0,9.13,-9.53,-4.89,0,*75
1500213725.14,18199,17.56,74350.3,9.11,-10.49,-5.93,0,*4F
1500213726.37,18200,17.63,74352.8,9.09,-9.75,-5.07,0,*7F
1500213727.59,18201,17.56,74350.8,9.09,-9.71,-4.93,0,*76
1500213728.81,18202,17.56,74352.5,9.09,-9.15,-4.41,0,*78
1500213730.05,18203,17.56,74354.8,9.05,-9.79,-5.19,0,*73
1500213731.27,18204,17.56,74354.0,9.05,-10.19,-5.35,0,*44
1500213732.48,18205,17.56,74352.0,9.05,-9.23,-4.45,0,*72
1500213733.71,18206,17.56,74354.8,9.05,-9.71,-4.93,0,*7D
1500213734.94,18207,17.56,74354.5,9.01,-10.31,-5.51,0,*4B
1500213736.16,18208,17.56,74350.5,9.01,-10.23,-5.51,0,*47
1500213737.38,18209,17.56,74352.3,8.99,-10.35,-5.65,0,*46
1500213738.62,18210,17.56,74352.5,8.97,-9.15,-4.41,0,*7D
1500213739.81,18211,17.56,74352.5,8.99,-9.27,-4.49,0,*7B
1500213741.04,18212,17.56,74354.0,8.97,-9.79,-4.93,0,*7A
1500213742.26,18213,17.56,74354.3,8.97,-9.27,-4.49,0,*77
1500213743.47,18214,17.56,74352.0,8.97,-9.27,-4.53,0,*7B
1500213744.68,18215,17.56,74354.8,8.97,-10.09,-5.43,0,*4E
1500213745.92,18216,17.56,74354.5,8.97,-9.67,-4.89,0,*7A
1500213747.16,18217,17.56,74354.8,8.93,-9.93,-5.27,0,*71
1500213748.39,18218,17.56,74354.3,8.93,-9.93,-5.11,0,*7B
1500213749.65,18219,17.56,74352.0,8.93,-9.49,-4.73,0,*78
1500213750.87,18220,17.56,74348.5,8.91,-9.93,-5.23,0,*73
1500213752.14,18221,17.56,74352.5,8.89,-10.67,-5.93,0,*43
1500213753.42,18222,17.56,74350.3,8.89,-10.67,-5.85,0,*47
1500213754.64,18223,17.56,74352.0,8.85,-10.19,-5.35,0,*48
1500213755.86,18224,17.56,74352.5,8.87,-9.11,-4.41,0,*7F
1500213757.11,18225,17.56,74352.8,8.85,-9.15,-4.33,0,*7D
1500213758.32,18226,17.56,74356.0,8.87,-9.15,-4.17,0,*7A
1500213759.54,18227,17.56,74358.0,8.85,-8.55,-3.87,0,*72
1500213760.72,18228,17.56,74356.8,8.87,-8.97,-4.17,0,*7F
1500213761.98,18229,17.56,74352.3,8.85,-9.49,-4.69,0,*77
1500213763.23,18230,17.56,74354.5,8.85,-9.75,-5.07,0,*79
1500213764.49,18231,17.56,74352.8,8.85,-9.49,-4.69,0,*7E
1500213765.72,18232,17.56,74352.5,8.85,-9.01,-4.21,0,*7D
1500213766.94,18233,17.56,74352.3,8.85,-9.19,-4.53,0,*70
1500213768.18,18234,17.56,74354.3,8.85,-8.81,-4.13,0,*73
1500213769.4,18235,17.56,74352.3,8.85,-8.75,-4.05,0,*7E
1500213770.62,18236,17.56,74354.3,8.85,-9.05,-4.41,0,*7B
1500213771.89,18237,17.56,74354.0,8.81,-9.41,-4.81,0,*72
1500213773.12,18238,17.56,74354.8,8.79,-9.61,-4.93,0,*7B
1500213774.32,18239,17.56,74354.5,8.79,-9.23,-4.61,0,*71
1500213775.55,18240,17.56,74354.3,8.81,-8.81,-4.17,0,*70
1500213776.75,18241,17.56,74350.0,8.79,-8.85,-4.17,0,*72
1500213777.95,18242,17.56,74354.3,8.79,-8.85,-4.25,0,*70
1500213779.14,18243,17.56,74354.5,8.79,-8.59,-3.95,0,*7C
1500213780.35,18244,17.56,74352.5,8.79,-8.81,-4.17,0,*73
1500213781.57,18245,17.56,74352.5,8.79,-9.67,-5.03,0,*7F
1500213782.84,18246,17.56,74352.0,8.77,-10.75,-6.23,0,*48
1500213784.12,18247,17.56,74354.8,8.77,-10.63,-5.89,0,*4D
1500213785.33,18248,17.56,74352.8,8.75,-10.05,-5.39,0,*4B
1500213786.59,18249,17.56,74352.5,8.75,-9.83,-5.19,0,*7E
1500213787.83,18250,17.56,74352.3,8.73,-9.61,-5.07,0,*73
1500213789.02,18251,17.56,74354.5,8.73,-9.27,-4.65,0,*75
1500213790.24,18252,17.56,74350.3,8.73,-9.27,-4.69,0,*7A
1500213791.45,18253,17.56,74352.0,8.73,-9.27,-4.69,0,*7B
1500213792.7,18254,17.56,74352.8,8.71,-9.11,-4.49,0,*79
1500213793.97,18255,17.63,74358.5,8.71,-9.41,-4.85,0,*7D
1500213795.18,18256,17.56,74356.3,8.71,-10.57,-6.05,0,*4B
1500213796.38,18257,17.56,74354.5,8.69,-11.19,-6.59,0,*41
1500213797.62,18258,17.56,74354.5,8.67,-9.67,-5.19,0,*77
1500213798.84,18259,17.56,74354.8,8.67,-10.49,-6.01,0,*48
1500213800.11,18260,17.56,74352.5,8.63,-9.41,-4.93,0,*7F
1500213801.36,18261,17.56,74354.5,8.65,-9.41,-5.07,0,*74
1500213802.63,18262,17.56,74354.0,8.63,-9.49,-5.19,0,*76
1500213803.9,18263,17.56,74356.0,8.63,-9.49,-5.19,0,*77
1500213805.13,18264,17.56,74358.0,8.63,-9.61,-5.35,0,*74
1500213806.39,18265,17.56,74356.5,8.63,-9.27,-5.07,0,*76
1500213807.61,18266,17.56,74354.5,8.65,-9.27,-5.07,0,*73
1500213808.86,18267,17.56,74354.8,8.63,-9.19,-5.03,0,*7D
1500213810.13,18268,17.56,74352.0,8.63,-9.45,-5.31,0,*7A
1500213811.38,18269,17.56,74354.5,8.63,-9.45,-5.35,0,*7F
1500213812.61,18270,17.56,74354.3,8.63,-9.97,-5.73,0,*7A
1500213813.84,18271,17.56,74356.3,8.57,-10.63,-6.47,0,*4B
1500213815.02,18272,17.56,74356.8,8.57,-10.09,-6.05,0,*42
1500213816.23,18273,17.56,74356.0,8.57,-9.67,-5.77,0,*75
1500213817.47,18274,17.56,74354.5,8.55,-9.67,-5.77,0,*70
1500213818.68,18275,17.56,74354.8,8.55,-10.49,-6.69,0,*49
1500213819.92,18276,17.56,74358.5,8.53,-9.83,-5.93,0,*74
1500213821.13,18277,17.56,74352.5,8.51,-10.09,-6.09,0,*4D
1500213822.37,18278,17.56,74356.5,8.51,-9.71,-5.85,0,*72
1500213823.57,18279,17.56,74352.8,8.49,-10.31,-6.55,0,*48
1500213824.75,18280,17.56,74354.8,8.49,-9.93,-6.09,0,*77
1500213825.95,18281,17.56,74354.0,8.49,-9.31,-5.51,0,*70
1500213827.14,18282,17.56,74352.5,8.49,-9.31,-5.39,0,*7D
1500213828.39,18283,17.56,74352.3,8.49,-9.45,-5.61,0,*72
1500213829.62,18284,17.56,74356.8,8.49,-9.57,-5.89,0,*70
1500213830.83,18285,17.56,74354.0,8.49,-10.05,-6.27,0,*49
1500213832.1,18286,17.56,74356.3,8.47,-10.75,-7.05,0,*42
1500213833.33,18287,17.63,74356.3,8.47,-9.83,-6.05,0,*73
1500213834.57,18288,17.56,74352.8,8.45,-9.83,-6.19,0,*73
1500213835.77,18289,17.56,74352.8,8.45,-10.49,-6.81,0,*4D
1500213836.98,18290,17.56,74354.3,8.45,-10.31,-6.55,0,*43
1500213838.19,18291,17.56,74354.0,8.41,-9.79,-6.13,0,*70
1500213839.43,18292,17.56,74354.3,8.41,-10.31,-6.63,0,*40
1500213840.62,18293,17.56,74356.8,8.39,-10.53,-6.89,0,*4E
1500213841.8,18294,17.56,74354.5,8.39,-9.75,-6.09,0,*7D
1500213843.02,18295,17.56,74352.0,8.41,-10.15,-6.51,0,*40
1500213844.2,18296,17.56,74352.0,8.39,-9.75,-6.09,0,*7F
1500213845.4,18297,17.56,74354.8,8.39,-9.93,-6.23,0,*7E
1500213846.59,18298,17.56,74354.0,8.39,-10.15,-6.39,0,*4C
1500213847.79,18299,17.56,74356.0,8.39,-10.19,-6.43,0,*4C
1500213848.97,18300,17.56,74352.3,8.35,-9.79,-6.13,0,*7A
1500213850.17,18301,17.56,74354.3,8.35,-10.57,-6.81,0,*44
1500213851.37,18302,17.56,74352.3,8.35,-10.35,-6.59,0,*46
1500213852.58,18303,17.56,74354.8,8.33,-10.53,-6.89,0,*4C
1500213853.77,18304,17.56,74358.3,8.35,-10.45,-6.73,0,*4F
1500213855.02,18305,17.56,74356.8,8.33,-10.79,-7.11,0,*42
1500213856.26,18306,17.56,74354.3,8.33,-10.63,-6.85,0,*46
1500213857.5,18307,17.56,74352.8,8.33,-11.11,-7.57,0,*4D
1500213858.72,18308,17.56,74352.5,8.33,-10.85,-7.15,0,*48
1500213859.94,18309,17.56,74358.3,8.31,-10.63,-6.89,0,*47
1500213861.16,18310,17.56,74352.3,8.31,-10.71,-7.11,0,*4C
1500213862.43,18311,17.56,74354.0,8.29,-11.29,-7.69,0,*47
1500213863.65,18312,17.56,74354.5,8.29,-10.85,-7.19,0,*44
1500213864.89,18313,17.56,74356.0,8.29,-11.11,-7.57,0,*43
1500213866.11,18314,17.56,74354.3,8.27,-11.15,-7.69,0,*43
1500213867.32,18315,17.56,74352.3,8.27,-10.89,-7.27,0,*4C
1500213868.54,18316,17.56,74358.5,8.27,-10.75,-7.19,0,*41
1500213869.79,18317,17.56,74354.5,8.25,-11.01,-7.61,0,*4F
1500213871.04,18318,17.56,74354.3,8.25,-11.01,-7.61,0,*40
1500213872.28,18319,17.56,74352.8,8.25,-11.59,-8.17,0,*42
1500213873.5,18320,17.56,74354.0,8.25,-12.25,-8.93,0,*4C
1500213874.69,18321,17.56,74354.5,8.23,-12.29,-8.85,0,*40
1500213875.96,18322,17.56,74356.3,8.21,-11.07,-7.65,0,*4F
1500213877.2,18323,17.56,74354.8,8.21,-10.79,-7.53,0,*43
1500213878.44,18324,17.56,74356.0,8.21,-11.37,-8.17,0,*40
1500213879.7,18325,17.56,74354.5,8.21,-11.33,-8.03,0,*40
1500213880.94,18326,17.56,74354.5,8.21,-10.93,-7.69,0,*4B
1500213882.21,18327,17.56,74354.8,8.21,-11.07,-7.91,0,*41
1500213883.41,18328,17.56,74356.0,8.19,-10.93,-7.83,0,*4A
1500213884.64,18329,17.56,74356.3,8.19,-11.29,-8.21,0,*4C
1500213885.86,18330,17.56,74354.3,8.19,-11.51,-8.41,0,*4D
1500213887.07,18331,17.56,74356.5,8.19,-12.35,-9.31,0,*4B
1500213888.31,18332,17.56,74352.8,8.17,-11.81,-8.93,0,*43
1500213889.58,18333,17.56,74356.5,8.17,-11.51,-8.51,0,*41
1500213890.8,18334,17.56,74358.3,8.15,-12.29,-9.49,0,*40
1500213892.04,18335,17.56,74358.5,8.11,-11.93,-9.23,0,*4B
1500213893.26,18336,17.56,74358.8,8.11,-12.03,-9.31,0,*41
1500213894.48,18337,17.56,74356.8,8.09,-11.63,-8.89,0,*4E
1500213895.7,18338,17.56,74356.3,8.09,-11.85,-9.23,0,*48
1500213896.95,18339,17.56,74356.3,8.07,-12.65,-10.01,0,*72
1500213898.2,18340,17.56,74356.3,8.07,-13.19,-10.67,0,*76
1500213899.43,18341,17.56,74356.3,8.03,-13.55,-11.19,0,*73
1500213900.69,18342,17.56,74358.3,8.03,-13.01,-10.49,0,*75
1500213901.97,18343,17.56,74358.0,7.99,-12.79,-10.41,0,*7E
1500213903.19,18344,17.56,74356.8,7.99,-12.47,-10.23,0,*70
1500213904.45,18345,17.56,74356.3,7.99,-12.35,-10.01,0,*74
1500213905.68,18346,17.56,74352.8,7.97,-11.93,-9.79,0,*41
1500213906.95,18347,17.56,74352.8,7.95,-11.81,-9.61,0,*48
1500213908.17,18348,17.56,74354.0,7.95,-11.45,-9.31,0,*4A
1500213909.42,18349,17.56,74354.3,7.97,-11.63,-9.49,0,*42
1500213910.69,18350,17.56,74352.8,7.95,-11.55,-9.49,0,*4D
1500213911.94,18351,17.56,74356.5,7.97,-11.67,-9.83,0,*49
1500213913.17,18352,17.56,74354.0,7.97,-11.41,-9.57,0,*47
1500213914.41,18353,17.56,74354.3,7.97,-11.51,-9.61,0,*42
1500213915.65,18354,17.56,74354.0,7.97,-11.89,-10.01,0,*7E
1500213916.88,18355,17.56,74354.8,7.97,-11.89,-10.01,0,*7F
1500213918.11,18356,17.56,74350.5,7.97,-11.89,-10.23,0,*7C
1500213919.38,18357,17.56,74354.0,7.95,-11.93,-10.35,0,*73
1500213920.61,18358,17.56,74358.5,7.97,-11.89,-10.15,0,*77
1500213921.87,18359,17.56,74354.0,7.95,-12.11,-10.49,0,*7F
1500213923.12,18360,17.56,74352.3,7.95,-12.25,-10.71,0,*79
1500213924.35,18361,17.56,74356.0,7.95,-12.29,-10.85,0,*7F
1500213925.6,18362,17.56,74356.3,7.95,-12.79,-11.41,0,*70
1500213926.83,18363,17.56,74352.8,7.93,-13.43,-11.97,0,*74
1500213928.09,18364,17.56,74354.8,7.87,-12.89,-11.51,0,*7B
1500213929.34,18365,17.56,74352.3,7.87,-12.61,-11.23,0,*79
1500213930.61,18366,17.56,74354.3,7.87,-12.61,-11.51,0,*7F
1500213931.89,18367,17.56,74354.3,7.87,-12.61,-11.55,0,*7A
1500213933.15,18368,17.56,74352.5,7.85,-12.75,-11.63,0,*77
1500213934.41,18369,17.56,74354.8,7.85,-12.75,-11.67,0,*72
1500213935.68,18370,17.56,74352.8,7.85,-12.75,-11.63,0,*7E
1500213936.96,18371,17.56,74354.5,7.87,-12.75,-11.67,0,*79
1500213938.19,18372,17.56,74352.8,7.85,-12.47,-11.67,0,*79
1500213939.45,18373,17.56,74350.8,7.85,-12.75,-11.93,0,*72
1500213940.73,18374,17.56,74350.8,7.83,-12.53,-11.67,0,*7C
1500213941.99,18375,17.56,74350.0,7.83,-12.21,-11.55,0,*79
1500213943.27,18376,17.56,74352.8,7.83,-12.71,-12.07,0,*7B
1500213944.48,18377,17.56,74352.0,7.81,-12.93,-12.39,0,*79
1500213945.72,18378,17.56,74354.3,7.83,-12.83,-12.39,0,*75
1500213946.95,18379,17.56,74352.0,7.83,-12.97,-12.43,0,*7C
1500213948.18,18380,17.56,74352.5,7.81,-12.71,-12.29,0,*7C
1500213949.41,18381,17.56,74352.0,7.81,-12.79,-12.39,0,*74
1500213950.67,18382,17.56,74352.8,7.83,-12.97,-12.71,0,*79
1500213951.87,18383,17.56,74352.5,7.81,-13.07,-12.93,0,*7E
1500213953.07,18384,17.56,74352.3,7.79,-13.55,-13.43,0,*75
1500213954.29,18385,17.56,74354.3,7.77,-13.15,-13.07,0,*7E
1500213955.51,18386,17.56,74354.0,7.79,-13.19,-13.37,0,*7C
1500213956.73,18387,17.56,74354.0,7.79,-13.69,-13.83,0,*75
1500213957.98,18388,17.56,74352.8,7.77,-13.87,-14.19,0,*70
1500213959.22,18389,17.56,74354.8,7.77,-13.47,-13.87,0,*7D
1500213960.44,18390,17.56,74354.0,7.75,-12.89,-13.37,0,*7F
1500213961.69,18391,17.56,74350.8,7.77,-13.37,-13.93,0,*76
1500213962.97,18392,17.56,74350.5,7.77,-13.79,-14.47,0,*71
1500213964.25,18393,17.56,74348.5,7.73,-13.97,-14.83,0,*7C
1500213965.48,18394,17.56,74350.5,7.73,-13.51,-14.37,0,*7E
1500213966.75,18395,17.56,74354.0,7.73,-13.79,-14.79,0,*7F
1500213967.98,18396,17.56,74350.5,7.71,-14.11,-15.43,0,*7F
1500213969.23,18397,17.56,74352.5,7.71,-14.43,-15.81,0,*77
1500213970.46,18398,17.56,74352.0,7.71,-14.29,-15.85,0,*70
1500213971.72,18399,17.56,74350.3,7.67,-13.97,-15.57,0,*7B
1500213972.91,18400,17.56,74348.8,7.63,-13.93,-15.63,0,*7B
1500213974.15,18401,17.56,74352.0,7.63,-13.51,-15.39,0,*7B
1500213975.4,18402,17.56,74350.0,7.65,-13.61,-15.63,0,*72
1500213976.6,18403,17.56,74350.5,7.63,-13.19,-15.15,0,*7B
1500213977.83,18404,17.56,74350.0,7.63,-13.07,-15.21,0,*74
1500213979.03,18405,17.56,74350.5,7.63,-12.93,-15.15,0,*7E
1500213980.23,18406,17.56,74350.3,7.63,-13.15,-15.49,0,*7B
1500213981.46,18407,17.56,74352.8,7.65,-13.15,-15.49,0,*7C
1500213982.66,18408,17.56,74348.5,7.63,-13.07,-15.49,0,*76
1500213983.89,18409,17.56,74352.3,7.65,-13.15,-15.75,0,*7D
1500213985.16,18410,17.56,74354.8,7.65,-13.79,-16.27,0,*7B
1500213986.38,18411,17.56,74350.8,7.63,-13.65,-16.27,0,*71
1500213987.63,18412,17.56,74352.8,7.63,-13.33,-16.13,0,*76
1500213988.89,18413,17.56,74354.3,7.61,-13.23,-16.13,0,*74
1500213990.13,18414,17.56,74348.3,7.61,-13.33,-16.45,0,*71
1500213991.34,18415,17.56,74348.3,7.59,-13.23,-16.59,0,*77
1500213992.58,18416,17.56,74354.5,7.61,-13.23,-16.75,0,*71
1500213993.83,18417,17.56,74352.3,7.61,-13.07,-16.69,0,*7B
1500213995.06,18418,17.56,74352.8,7.59,-12.79,-16.59,0,*74
1500213996.26,18419,17.56,74352.3,7.59,-12.93,-16.97,0,*73
1500213997.49,18420,17.56,74352.5,7.59,-12.57,-16.75,0,*7D
1500213998.74,18421,17.56,74352.8,7.59,-12.57,-17.03,0,*7C
1500213999.97,18422,17.56,74352.0,7.61,-12.25,-16.83,0,*78
1500214001.2,18423,17.56,74350.3,7.59,-12.39,-17.21,0,*76
1500214002.42,18424,17.56,74352.0,7.61,-12.47,-17.49,0,*7D
1500214003.67,18425,17.56,74350.0,7.61,-12.35,-17.49,0,*79
1500214004.95,18426,17.56,74352.8,7.61,-11.97,-17.45,0,*7D
1500214006.2,18427,17.56,74352.8,7.59,-11.97,-17.63,0,*73
1500214007.45,18428,17.56,74354.3,7.59,-11.81,-17.79,0,*70
1500214008.68,18429,17.56,74356.5,7.59,-11.93,-18.21,0,*70
1500214009.88,18430,17.56,74352.0,7.59,-12.25,-18.65,0,*76
1500214011.08,18431,17.56,74352.0,7.59,-12.25,-18.83,0,*7F
1500214012.34,18432,17.56,74354.5,7.57,-11.85,-18.59,0,*7C
1500214013.57,18433,17.56,74352.8,7.57,-11.15,-18.07,0,*7F
1500214014.81,18434,17.56,74352.8,7.57,-11.07,-18.17,0,*7A
1500214016.03,18435,17.56,74352.0,7.57,-10.89,-18.17,0,*7C
1500214017.27,18436,17.56,74350.3,7.55,-10.57,-17.97,0,*79
1500214018.49,18437,17.56,74352.0,7.59,-9.83,-17.35,0,*4D
1500214019.69,18438,17.56,74348.0,7.59,-9.05,-16.83,0,*40
1500214020.93,18439,17.56,74354.8,7.61,-7.95,-15.67,0,*44
1500214022.15,18440,17.56,74352.3,7.65,-6.73,-14.37,0,*43
1500214023.36,18441,17.56,74350.3,7.71,-6.01,-13.83,0,*4A
1500214024.61,18442,17.56,74350.8,7.77,-5.31,-13.15,0,*40
1500214025.88,18443,17.56,74348.8,7.83,-5.31,-13.29,0,*45
1500214027.12,18444,17.56,74350.5,7.87,-5.43,-13.61,0,*4F
1500214028.34,18445,17.56,74354.5,7.97,-5.15,-13.47,0,*48
1500214029.58,18446,17.56,74350.3,8.01,-5.27,-13.83,0,*42
1500214030.8,18447,17.56,74350.5,8.09,-5.15,-13.93,0,*4B
1500214032.01,18448,17.56,74350.0,8.11,-4.65,-13.43,0,*46
1500214033.27,18449,17.56,74348.3,8.19,-4.01,-12.79,0,*45
1500214034.48,18450,17.56,74352.3,8.27,-3.43,-12.21,0,*4C
1500214035.73,18451,17.56,74350.5,8.31,-3.63,-12.61,0,*4C
1500214036.98,18452,17.56,74350.5,8.41,-3.75,-12.79,0,*46
1500214038.19,18453,17.56,74348.8,8.49,-3.83,-13.11,0,*49
1500214039.43,18454,17.56,74350.5,8.55,-3.75,-13.01,0,*4B
1500214040.69,18455,17.56,74348.8,8.63,-3.11,-12.35,0,*4B
1500214041.89,18456,17.56,74350.0,8.69,-3.07,-12.29,0,*48
1500214043.08,18457,17.56,74350.8,8.73,-2.91,-12.21,0,*44
1500214044.3,18458,17.56,74350.5,8.81,-2.91,-12.29,0,*4E
1500214045.51,18459,17.56,74348.8,8.87,-2.99,-12.61,0,*4D
1500214046.75,18460,17.56,74350.3,8.97,-3.15,-12.65,0,*47
1500214047.97,18461,17.56,74352.8,9.01,-2.91,-12.39,0,*4C
1500214049.22,18462,17.56,74352.8,9.11,-3.11,-12.53,0,*4B
1500214050.42,18463,17.56,74352.8,9.17,-3.39,-13.07,0,*46
1500214051.64,18464,17.56,74348.5,9.21,-3.43,-12.97,0,*41
1500214052.88,18465,17.56,74350.3,9.27,-3.43,-13.11,0,*49
1500214054.12,18466,17.56,74350.5,9.35,-3.47,-13.15,0,*49
1500214055.37,18467,17.56,74352.5,9.39,-3.27,-12.83,0,*4C
1500214056.59,18468,17.56,74350.3,9.47,-3.59,-13.23,0,*48
1500214057.83,18469,17.56,74350.8,9.53,-3.63,-13.23,0,*45
1500214059.07,18470,17.56,74350.5,9.57,-4.13,-13.79,0,*46
1500214060.25,18471,17.56,74350.3,9.63,-4.41,-14.11,0,*4E
1500214061.48,18472,17.56,74350.3,9.67,-4.33,-14.01,0,*4D
1500214062.69,18473,17.56,74348.3,9.71,-4.45,-14.05,0,*4E
1500214063.93,18474,17.56,74348.5,9.77,-5.27,-15.07,0,*49
1500214065.12,18475,17.56,74352.0,9.83,-5.35,-15.07,0,*40
1500214066.34,18476,17.56,74352.0,9.87,-5.61,-15.07,0,*46
1500214067.58,18477,17.56,74350.3,9.89,-4.77,-14.15,0,*4D
1500214068.79,18478,17.56,74348.5,9.91,-4.77,-14.29,0,*44
1500214070.04,18479,17.56,74350.0,9.99,-5.19,-14.75,0,*4D
1500214071.26,18480,17.56,74348.3,10.03,-5.23,-14.69,0,*74
1500214072.48,18481,17.56,74348.0,10.09,-5.35,-14.93,0,*7D
1500214073.74,18482,17.56,74354.3,10.11,-5.69,-15.07,0,*72
1500214074.96,18483,17.56,74350.5,10.15,-5.39,-14.89,0,*75
1500214076.19,18484,17.56,74350.5,10.21,-5.07,-14.29,0,*72
1500214077.41,18485,17.56,74350.5,10.25,-5.03,-14.23,0,*79
1500214078.64,18486,17.56,74348.8,10.31,-5.39,-14.61,0,*70
1500214079.9,18487,17.56,74354.3,10.35,-5.93,-15.25,0,*74
1500214081.12,18488,17.56,74352.8,10.39,-6.27,-15.67,0,*7D
1500214082.4,18489,17.56,74348.3,10.41,-6.19,-15.39,0,*75
1500214083.65,18490,17.56,74348.8,10.45,-6.05,-15.35,0,*78
1500214084.88,18491,17.56,74352.0,10.49,-6.13,-15.53,0,*72
1500214086.1,18492,17.56,74348.0,10.53,-6.39,-16.03,0,*74
1500214087.34,18493,17.56,74348.5,10.57,-6.55,-16.31,0,*7A
1500214088.57,18494,17.56,74348.8,10.57,-6.31,-15.99,0,*7E
1500214089.8,18495,17.56,74350.5,10.61,-5.55,-15.49,0,*76
1500214091.01,18496,17.56,74350.8,10.67,-4.65,-14.43,0,*7A
1500214092.23,18497,17.56,74352.3,10.71,-3.39,-13.15,0,*76
1500214093.45,18498,17.56,74348.3,10.75,-3.35,-13.23,0,*74
1500214094.72,18499,17.56,74354.5,10.79,-2.67,-12.57,0,*7D
1500214095.99,18500,17.56,74352.0,10.83,-1.91,-12.07,0,*76
1500214097.23,18501,17.56,74352.5,10.91,-1.55,-11.85,0,*75
1500214098.48,18502,17.56,74350.5,10.95,-1.17,-11.67,0,*78
1500214099.7,18503,17.56,74348.5,11.01,-0.69,-11.33,0,*4C
1500214100.92,18504,17.56,74352.5,11.05,-0.61,-11.51,0,*43
1500214102.18,18505,17.56,74350.8,11.11,-0.81,-11.85,0,*40
1500214103.38,18506,17.56,74348.3,11.13,-0.29,-11.41,0,*4B
1500214104.61,18507,17.56,74350.8,11.19,-0.11,-11.45,0,*4F
1500214105.89,18508,17.56,74352.0,11.19,-0.89,-12.53,0,*45
1500214107.1,18509,17.56,74352.8,11.21,-0.81,-12.39,0,*4B
1500214108.33,18510,17.56,74354.0,11.21,-0.81,-12.57,0,*4B
1500214109.56,18511,17.56,74354.3,11.23,-0.37,-12.21,0,*44
1500214110.76,18512,17.56,74350.8,11.25,-0.37,-12.43,0,*45